Home > Weather > Allschwil > Past weeks

Flag for Switzerland Past Weather in Allschwil, Basel-Land, Switzerland — Yesterday and Last 2 Weeks

Now
69 °F

Overcast.


Feels Like: 69 °F
Forecast: 56 / 73 °F
Wind: 3 mph from Southwest

Location: Bale-Mulhouse

Current Time: Jul 31, 2016 at 9:20:07 AM

Latest Report: Jul 31, 2016 at 8:00 AM


Visibility: 13 mi

Pressure: 29.92 "Hg

Humidity: 80%

Dew Point: 63 °F

Location of AllschwilLocation

Past Weather in Allschwil — Graph

°F

Allschwil Temperature Yesterday

Maximum temperature yesterday: 86 °F (at 4:00 PM)
Minimum temperature yesterday: 59 °F (at 3:00 AM)
Average temperature yesterday: 74 °F

High & Low Weather Summary for the Past Weeks

 TemperatureHumidityPressure
High95 °F (Jul 20, 4:00 PM)97% (Jul 19, 7:00 AM)30.35 "Hg (Jul 19, 7:00 AM)
Low50 °F (Jul 17, 6:00 AM)30% (Jul 19, 6:00 PM)29.86 "Hg (Jul 30, 7:00 PM)
Average72 °F69%30.05 "Hg
* Reported Jul 16 8:00 AM — Jul 31 8:00 AM, Allschwil, Weather by CustomWeather, © 2016

Note: Actual official high and low records may vary slightly from our data, if they occured in-between our weather recording intervals... More about our weather records

Advertising

Allschwil Weather History for the Previous 24 Hours

Scroll right to see more
 ConditionsComfort  
Time TempWeatherWind HumidityBarometerVisibility
8:00 AM
Sun, Jul 31
69 °FOvercast.3 mph80%29.92 "Hg12 mi
7:00 AM67 °FOvercast.3 mph86%29.91 "Hg19 mi
6:00 AM68 °FOvercast.6 mph85%29.91 "Hg22 mi
5:00 AM68 °FOvercast.2 mph85%29.91 "Hg22 mi
4:00 AM70 °FOvercast.2 mph79%29.90 "Hg19 mi
3:00 AM69 °FOvercast.7 mph82%29.90 "Hg25 mi
2:00 AM67 °FPassing clouds.2 mph88%29.90 "Hg25 mi
1:00 AM67 °FMild.3 mph87%29.89 "Hg22 mi
12:00 AM68 °FPassing clouds.1 mph86%29.88 "Hg19 mi
11:00 PM
Sat, Jul 30
69 °FPassing clouds.2 mph81%29.89 "Hg19 mi
10:00 PM74 °FPassing clouds.No wind70%29.90 "Hg19 mi
9:00 PM76 °FOvercast.3 mph66%29.88 "Hg19 mi
8:00 PM82 °FOvercast.3 mph54%29.87 "Hg19 mi
7:00 PM83 °FOvercast.7 mph52%29.86 "Hg19 mi
6:00 PM83 °FPartly sunny.6 mph52%29.87 "Hg19 mi
5:00 PM85 °FPartly sunny.6 mph48%29.88 "Hg19 mi
4:00 PM86 °FScattered clouds.6 mph46%29.88 "Hg19 mi
3:00 PM85 °FScattered clouds.10 mph47%29.89 "Hg19 mi
2:00 PM85 °FPassing clouds.12 mph48%29.90 "Hg19 mi
1:00 PM83 °FPassing clouds.9 mph50%29.91 "Hg25 mi
12:00 PM81 °FPassing clouds.3 mph53%29.92 "Hg25 mi
11:00 AM78 °FPassing clouds.3 mph57%29.93 "Hg19 mi
10:00 AM76 °FPassing clouds.2 mph59%29.95 "Hg25 mi
9:00 AM71 °FScattered clouds.5 mph71%29.96 "Hg25 mi
Weather by CustomWeather, © 2016

See weather overviewHow to use our weather pages